Retour au catalogue

OSCAR 31

ActifRadio amateurPO
NORAD 19420·PAYLOAD·🇺🇸 United States

Lancé Aug 25, 1988 depuis Vandenberg Space Force Base

Loading…

Prochains Passages (prochaines 24 heures)

TLE

FraisSource: Space-Track

Époque: Sep 14, 2026, 06:51 UTC

1 19420U 88074B   26257.28574696  .00000063  00000-0  92008-4 0  9994
2 19420  90.0504  21.7211 0094749 173.3113 214.0451 13.42621267863482

Suivez OSCAR 31 en temps réel avec AllMySat

Download on the App Store